STARLINK-34648, 65091

Orbit data source: Space-Track

STARLINK-34648, 65091 is a payload satellite owned by SpaceX/Seattle (US) in LEO that was launched on Mon, 04 Aug 2025 UTC via an FALCON 9 launch vehicle from the Air Force Eastern Test Range (AFETR). Payload-class satellites include a variety of spacecraft equipped with specific instruments for various scientific and technological missions. These include communications satellites like Starlink; space stations such as the ISS; scientific satellites like the Hubble; Earth observation satellites from companies like Planet Labs, Umbra, and HawkEye 360; GPS; miniature CubeSats for education and research; and military/defense satellites.

Loading next visibility...
Identifier
65091, 2025-167P
Orbit
LEO
Country
Flag of USUS
Related business
Manufacturer
SpaceX/Seattle
Mission
Operational Commercial Communications
Bus & Motor
STARLINK V2MO, Unknown motor
Mass
575 kg wet, ~530 kg dry
Launch date (UTC)
2025-08-04 (9 months ago)
Launch vehicle
FALCON 9
Launch site
Air Force Eastern Test Range (AFETR)
Object type
Payload
Rocket body
Debris
Shape & HBR
Box + 2 Pan, 17.7 m
Radar Cross Section
36.964 m², Large (>1 m²)

Expand to show TLE details & history
Last TLE update: 11 hours ago

TLE from 11 hours ago
0 STARLINK-34648
1 65091U 25167P   26127.22475735  .00029389  00000-0  68189-3 0  9991
2 65091  53.1602 113.9268 0001367 137.4763 222.6349 15.42174108 42454
Epoch: 2026-05-07T05:23Z
TLE epoch observation values (Epoch: 2026-05-07T05:23:39.035Z)
Latitude
-0°
Longitude
167.94019°
Altitude
441.284 km
Speed
7.648 km/s
True Right ascension
07h 35m 42s
True Declination
0° 00' 00"
Sunlit
Object was in daylight at epoch
Visualization orbit readout
Latitude
Unknown
Longitude
Unknown
Altitude
Unknown
Speed
Unknown
Apparent Right ascension
Unknown
Apparent Declination
Unknown
Sunlit
N/A
Visualization observer readout
Local Sidereal Time
00:46:03
Azimuth
Unknown
Elevation
Unknown
Doppler factor
Unknown
Orbital elements
Apogee altitude
440.884 km
Perigee altitude
439.02 km
Semi-major axis
6,818.089 km
Eccentricity
0.00014
Inclination
53.1602°
RAAN
113.9268°
Arg. of periapsis
137.4763°
True anomaly
222.62429°
Mean anomaly
222.6349°
Eccentric anomaly
222.6296°
Mean motion
3.85522 °/min
Orbital period
93.38 mins
BSTAR
0.00068189
Loading maneuver chart data...
Computing Atmospheric mass density...
Loading historical data...
Loading historical data...
Loading historical data...
Loading historical data...
Loading historical data...
Loading historical data...
Loading historical data...

Documentation

Showing up to 5 results
|